Regional Weather Roundup
Issued by NWS

Home | Current Version | Previous Version | Graphics & Text | Print | Product List | Glossary On
Versions: 1 2 3 4 5 6 7 8 9 10 11 12 13 14 15 16 17 18 19 20 21 22 23 24 25 26 27 28 29 30 31 32 33 34 35 36 37 38 39 40 41 42 43 44 45 46 47 48 49 50
000
ASUS43 KIND 231409
RWRIN

WEATHER ROUNDUP FOR INDIANA
NATIONAL WEATHER SERVICE INDIANAPOLIS IN
900 AM EST THU FEB 23 2017

NOTE: "FAIR" INDICATES FEW OR NO CLOUDS BELOW 12,000 FEET WITH NO
SIGNIFICANT WEATHER AND/OR OBSTRUCTIONS TO VISIBILITY.

* - STATION DOES NOT REPORT WEATHER SUCH AS PRECIPITATION OR FOG.

+ - STATION NOT QUALITY CONTROLLED BY THE NATIONAL WEATHER SERVICE.
    USE DATA WITH CAUTION...ESPECIALLY DEWPOINT AND RELATIVE
    HUMIDITY OBSERVATIONS.

INZ001>003-010>013-019-020-231500-
NORTHWEST INDIANA

CITY           SKY/WX    TMP DP  RH WIND       PRES   REMARKS
GARY /AIRPORT/ MOSUNNY   52  45  76 NW9       29.78R
KNOX *+        CLOUDY    46  41  81 SW5       29.77R VSB<1/4
LA PORTE +     FOG       44  44 100 CALM      29.77R VSB 1/2
MICHIGAN CITY+ SUNNY     50  43  76 N6        29.78R
MONTICELLO +   SUNNY     50  48  95 SW3       29.76R FOG
RENSSELAER +   MOSUNNY   48  48 100 W6        29.77R FOG
VALPARAISO     SUNNY     47  47 100 CALM      29.77R FOG

$$

LMZ046-743>745-231500-
SOUTHERN LAKE MICHIGAN

STATION/POSITION TIME  TEMP    WIND        PRES    WAVE
                       AIR SEA DIR/SP/G            HT
                 (UTC) (F)     (DEG/KT/KT) (MB)    (FT)
BURNS HARBOR     1340   44     300/  5/  7 1008.5R
MICHIGAN CITY    1340   42     220/  5/  6   N/A

$$

INZ004-005-014>016-021>024-231500-
NORTH CENTRAL INDIANA

CITY           SKY/WX    TMP DP  RH WIND       PRES   REMARKS
ELKHART          N/A     50  48  93 MISG      29.75R FOG
GOSHEN         SUNNY     51  49  92 W6        29.75R FOG
LOGANSPORT +   MOSUNNY   52  52 100 SW5       29.77S FOG
PERU/GRISSOM   SUNNY     53  53 100 SW6       29.75R
ROCHESTER +    SUNNY     54  52  94 W7        29.76R
SOUTH BEND     MOSUNNY   47  47 100 SW3       29.77R FOG
WARSAW +       SUNNY     52  50  93 W5        29.76R FOG

$$

INZ006>009-017-018-025>027-231500-
NORTHEAST INDIANA

CITY           SKY/WX    TMP DP  RH WIND       PRES   REMARKS
ANGOLA *+      SUNNY     54  46  76 W7        29.73S
AUBURN +       SUNNY     54  50  87 CALM      29.76R FOG
FORT WAYNE     MOSUNNY   55  52  89 SW7       29.76R
HUNTINGTON +   PTSUNNY   53  52  95 SW3       29.76R
KENDALLVILLE + SUNNY     52  51  97 W7        29.75R FOG

$$

INZ028-029-035-036-043>045-051>053-231500-
WEST CENTRAL INDIANA

CITY           SKY/WX    TMP DP  RH WIND       PRES   REMARKS
LAFAYETTE      PTSUNNY   51  51 100 CALM      29.76R FOG
TERRE HAUTE    MOSUNNY   57  55  93 S6        29.78R

$$

INZ030>032-037>040-046>048-054>057-064-065-231500-
CENTRAL INDIANA

CITY           SKY/WX    TMP DP  RH WIND       PRES   REMARKS
ANDERSON       CLOUDY    55  55 100 S6        29.78  FOG
CP ATTERBURY + SUNNY     59  55  88 SW5       29.79R
COLUMBUS       SUNNY     57  57 100 S9        29.78F
FRANKFORT +    CLOUDY    55  54  97 W3        29.79R FOG
GREENWOOD *+   SUNNY     56  56 100 S6        29.78S
INDIANAPOLIS   MOSUNNY   58  56  93 SW7       29.77R
-EAGLE CREEK   MOSUNNY   57  55  93 S6        29.76R
KOKOMO +       SUNNY     55  53  93 SW7       29.78R FOG
MARION +       MOSUNNY   53  53  99 SW7       29.78R FOG
MT COMFORT *+  PTSUNNY   54  54 100 S7        29.78R
SHELBYVILLE    SUNNY     57  53  86 S12       29.78S
ZIONSVILLE +   PTSUNNY   54  53  99 SW3       29.78R FOG

$$

INZ033-034-041-042-049-050-058-059-231500-
EAST CENTRAL INDIANA

CITY           SKY/WX    TMP DP  RH WIND       PRES   REMARKS
MUNCIE         CLOUDY    58  54  86 SW7       29.77R

$$

INZ060-061-067>069-081>083-085>088-231500-
SOUTHWEST INDIANA

CITY           SKY/WX    TMP DP  RH WIND       PRES   REMARKS
EVANSVILLE     SUNNY     59  55  87 S6        29.81R
HUNTINGBURG *+ CLOUDY    59  55  88 S9        29.82R
WASHINGTON +   CLOUDY    57  55  94 S10       29.79S

$$

INZ062-063-066-070>080-084-089>092-231500-
SOUTH CENTRAL AND SOUTHEAST INDIANA

CITY           SKY/WX    TMP DP  RH WIND       PRES   REMARKS
BLOOMINGTON    SUNNY     59  54  83 SW9       29.78S
MADISON *+     CLOUDY    59  55  88 S7        29.85R
NORTH VERNON + MOSUNNY  N/A N/A N/A S9        29.81R
SEYMOUR +      MOSUNNY   59  55  88 S8        29.80S

$$





USA.gov is the U.S. government's official web portal to all federal, state and local government web resources and services.